<?xml version="1.0" encoding="UTF-8" standalone="no" ?>
<gpx xmlns="http://www.topografix.com/GPX/1/1" xmlns:xsi="http://www.w3.org/2001/XMLSchema-instance" xsi:schemaLocation="http://www.topografix.com/GPX/1/1 http://www.topografix.com/GPX/1/1/gpx.xsd" version="1.1" creator="VisuGPX - https://www.visugpx.com">
  <metadata>
    <name>Montarcher-Vtt valide V2</name>
  </metadata>
  <trk>
    <name><![CDATA[14473535-Vtt valide]]></name>
    <extensions>
      <line xmlns="http://www.topografix.com/GPX/gpx_style/0/2">
        <color>0000FF</color>
        <opacity>0.65</opacity>
        <width>9</width>
        <dasharray>27</dasharray>
          <extensions>
            <sens>1</sens>
          </extensions>
      </line>
    </extensions>
    <trkseg>
      <trkpt lat="45.45958" lon="3.9957">
        <ele>1135</ele>
        <time>2022-05-17T10:35:00Z</time>
      </trkpt>
      <trkpt lat="45.45962" lon="3.99562">
        <ele>1134</ele>
        <time>2022-05-17T10:35:06Z</time>
      </trkpt>
      <trkpt lat="45.45949" lon="3.99554">
        <ele>1136</ele>
        <time>2022-05-17T10:35:17Z</time>
      </trkpt>
      <trkpt lat="45.45946" lon="3.99524">
        <ele>1136</ele>
        <time>2022-05-17T10:35:34Z</time>
      </trkpt>
      <trkpt lat="45.45936" lon="3.99491">
        <ele>1137</ele>
        <time>2022-05-17T10:35:54Z</time>
      </trkpt>
      <trkpt lat="45.45922" lon="3.9947">
        <ele>1138</ele>
        <time>2022-05-17T10:36:10Z</time>
      </trkpt>
      <trkpt lat="45.45898" lon="3.9946">
        <ele>1137</ele>
        <time>2022-05-17T10:36:30Z</time>
      </trkpt>
      <trkpt lat="45.45888" lon="3.99452">
        <ele>1136</ele>
        <time>2022-05-17T10:36:40Z</time>
      </trkpt>
      <trkpt lat="45.45872" lon="3.99445">
        <ele>1135</ele>
        <time>2022-05-17T10:36:53Z</time>
      </trkpt>
      <trkpt lat="45.45859" lon="3.99444">
        <ele>1135</ele>
        <time>2022-05-17T10:37:03Z</time>
      </trkpt>
      <trkpt lat="45.45848" lon="3.99453">
        <ele>1135</ele>
        <time>2022-05-17T10:37:14Z</time>
      </trkpt>
      <trkpt lat="45.45841" lon="3.99461">
        <ele>1136</ele>
        <time>2022-05-17T10:37:21Z</time>
      </trkpt>
      <trkpt lat="45.4583" lon="3.99475">
        <ele>1136</ele>
        <time>2022-05-17T10:37:33Z</time>
      </trkpt>
      <trkpt lat="45.4583" lon="3.99483">
        <ele>1137</ele>
        <time>2022-05-17T10:37:37Z</time>
      </trkpt>
      <trkpt lat="45.4584" lon="3.99527">
        <ele>1138</ele>
        <time>2022-05-17T10:38:03Z</time>
      </trkpt>
      <trkpt lat="45.45846" lon="3.99565">
        <ele>1136</ele>
        <time>2022-05-17T10:38:25Z</time>
      </trkpt>
      <trkpt lat="45.45893" lon="3.99563">
        <ele>1139</ele>
        <time>2022-05-17T10:39:02Z</time>
      </trkpt>
      <trkpt lat="45.45901" lon="3.99576">
        <ele>1145.4</ele>
      </trkpt>
      <trkpt lat="45.45941" lon="3.9959">
        <ele>1137</ele>
        <time>2022-05-17T10:39:44Z</time>
      </trkpt>
      <trkpt lat="45.45912" lon="3.99608">
        <ele>1141.1</ele>
      </trkpt>
      <trkpt lat="45.45888" lon="3.99624">
        <ele>1137.2</ele>
      </trkpt>
      <trkpt lat="45.4586" lon="3.99621">
        <ele>1135.9</ele>
        <time>2022-05-17T10:40:42Z</time>
      </trkpt>
      <trkpt lat="45.4582" lon="3.99573">
        <ele>1131</ele>
        <time>2022-05-17T10:41:25Z</time>
      </trkpt>
      <trkpt lat="45.45814" lon="3.99569">
        <ele>1136.1</ele>
      </trkpt>
      <trkpt lat="45.45798" lon="3.99529">
        <ele>1128</ele>
        <time>2022-05-17T10:41:55Z</time>
      </trkpt>
      <trkpt lat="45.45777" lon="3.99498">
        <ele>1125</ele>
        <time>2022-05-17T10:42:19Z</time>
      </trkpt>
      <trkpt lat="45.45766" lon="3.99473">
        <ele>1121</ele>
        <time>2022-05-17T10:42:36Z</time>
      </trkpt>
      <trkpt lat="45.45756" lon="3.99457">
        <ele>1118</ele>
        <time>2022-05-17T10:42:48Z</time>
      </trkpt>
      <trkpt lat="45.4575" lon="3.99436">
        <ele>1116</ele>
        <time>2022-05-17T10:43:01Z</time>
      </trkpt>
      <trkpt lat="45.45743" lon="3.99411">
        <ele>1114.4</ele>
        <time>2022-05-17T10:43:18Z</time>
      </trkpt>
      <trkpt lat="45.457" lon="3.99447">
        <ele>1101</ele>
        <time>2022-05-17T10:44:02Z</time>
      </trkpt>
      <trkpt lat="45.45685" lon="3.99506">
        <ele>1098.7</ele>
      </trkpt>
      <trkpt lat="45.4568" lon="3.99549">
        <ele>1095.1</ele>
      </trkpt>
      <trkpt lat="45.45714" lon="3.99585">
        <ele>1101.7</ele>
        <time>2022-05-17T10:45:17Z</time>
      </trkpt>
      <trkpt lat="45.45729" lon="3.99594">
        <ele>1104.7</ele>
      </trkpt>
      <trkpt lat="45.45746" lon="3.9962">
        <ele>1106</ele>
        <time>2022-05-17T10:45:48Z</time>
      </trkpt>
      <trkpt lat="45.45775" lon="3.99651">
        <ele>1110</ele>
        <time>2022-05-17T10:46:17Z</time>
      </trkpt>
      <trkpt lat="45.45798" lon="3.99678">
        <ele>1110</ele>
      </trkpt>
      <trkpt lat="45.45816" lon="3.99686">
        <ele>1112.6</ele>
        <time>2022-05-17T10:47:31Z</time>
      </trkpt>
      <trkpt lat="45.45845" lon="3.99724">
        <ele>1109.8</ele>
      </trkpt>
      <trkpt lat="45.4588" lon="3.99756">
        <ele>1109.5</ele>
        <time>2022-05-17T10:48:23Z</time>
      </trkpt>
      <trkpt lat="45.45957" lon="3.99816">
        <ele>1112.9</ele>
        <time>2022-05-17T10:49:40Z</time>
      </trkpt>
      <trkpt lat="45.45988" lon="3.99864">
        <ele>1108.9</ele>
        <time>2022-05-17T10:50:17Z</time>
      </trkpt>
      <trkpt lat="45.46001" lon="3.99917">
        <ele>1103.1</ele>
        <time>2022-05-17T10:50:51Z</time>
      </trkpt>
      <trkpt lat="45.46012" lon="3.99947">
        <ele>1100.1</ele>
        <time>2022-05-17T10:51:19Z</time>
      </trkpt>
      <trkpt lat="45.46057" lon="4.0002">
        <ele>1098.5</ele>
        <time>2022-05-17T10:51:59Z</time>
      </trkpt>
      <trkpt lat="45.46068" lon="4.0004">
        <ele>1098.3</ele>
      </trkpt>
      <trkpt lat="45.46071" lon="4.00058">
        <ele>1097</ele>
        <time>2022-05-17T10:52:23Z</time>
      </trkpt>
      <trkpt lat="45.46083" lon="4.00137">
        <ele>1090</ele>
        <time>2022-05-17T10:53:09Z</time>
      </trkpt>
      <trkpt lat="45.4607" lon="4.00182">
        <ele>1083</ele>
        <time>2022-05-17T10:53:36Z</time>
      </trkpt>
      <trkpt lat="45.46074" lon="4.00216">
        <ele>1082.8</ele>
      </trkpt>
      <trkpt lat="45.46074" lon="4.00247">
        <ele>1080.9</ele>
        <time>2022-05-17T10:54:14Z</time>
      </trkpt>
      <trkpt lat="45.46063" lon="4.00297">
        <ele>1077.5</ele>
        <time>2022-05-17T10:54:43Z</time>
      </trkpt>
      <trkpt lat="45.46082" lon="4.00355">
        <ele>1076</ele>
        <time>2022-05-17T10:55:18Z</time>
      </trkpt>
      <trkpt lat="45.46084" lon="4.00398">
        <ele>1076.1</ele>
      </trkpt>
      <trkpt lat="45.46082" lon="4.0043">
        <ele>1075.4</ele>
        <time>2022-05-17T10:56:02Z</time>
      </trkpt>
      <trkpt lat="45.46071" lon="4.00474">
        <ele>1072.1</ele>
        <time>2022-05-17T10:56:26Z</time>
      </trkpt>
      <trkpt lat="45.46076" lon="4.00527">
        <ele>1071</ele>
        <time>2022-05-17T10:56:56Z</time>
      </trkpt>
      <trkpt lat="45.46063" lon="4.00555">
        <ele>1068.5</ele>
      </trkpt>
      <trkpt lat="45.46048" lon="4.00575">
        <ele>1072</ele>
        <time>2022-05-17T10:57:31Z</time>
      </trkpt>
      <trkpt lat="45.45982" lon="4.00591">
        <ele>1066</ele>
        <time>2022-05-17T10:58:25Z</time>
      </trkpt>
      <trkpt lat="45.45941" lon="4.00621">
        <ele>1065</ele>
        <time>2022-05-17T10:59:02Z</time>
      </trkpt>
      <trkpt lat="45.45919" lon="4.00637">
        <ele>1066</ele>
      </trkpt>
      <trkpt lat="45.45894" lon="4.00676">
        <ele>1069</ele>
        <time>2022-05-17T10:59:50Z</time>
      </trkpt>
      <trkpt lat="45.4585" lon="4.00729">
        <ele>1069</ele>
        <time>2022-05-17T11:00:37Z</time>
      </trkpt>
      <trkpt lat="45.45792" lon="4.00787">
        <ele>1066</ele>
        <time>2022-05-17T11:01:33Z</time>
      </trkpt>
      <trkpt lat="45.45748" lon="4.00852">
        <ele>1068</ele>
        <time>2022-05-17T11:02:24Z</time>
      </trkpt>
      <trkpt lat="45.45698" lon="4.00926">
        <ele>1068.5</ele>
        <time>2022-05-17T11:03:33Z</time>
      </trkpt>
      <trkpt lat="45.45597" lon="4.01001">
        <ele>1072</ele>
        <time>2022-05-17T11:04:53Z</time>
      </trkpt>
      <trkpt lat="45.45539" lon="4.01032">
        <ele>1075</ele>
        <time>2022-05-17T11:05:42Z</time>
      </trkpt>
      <trkpt lat="45.45467" lon="4.01079">
        <ele>1078</ele>
        <time>2022-05-17T11:06:46Z</time>
      </trkpt>
      <trkpt lat="45.45434" lon="4.01098">
        <ele>1078.5</ele>
      </trkpt>
      <trkpt lat="45.45405" lon="4.01124">
        <ele>1077.1</ele>
        <time>2022-05-17T11:07:42Z</time>
      </trkpt>
      <trkpt lat="45.45332" lon="4.01086">
        <ele>1075</ele>
        <time>2022-05-17T11:08:48Z</time>
      </trkpt>
      <trkpt lat="45.45231" lon="4.01051">
        <ele>1070.6</ele>
        <time>2022-05-17T11:10:13Z</time>
      </trkpt>
      <trkpt lat="45.45139" lon="4.01007">
        <ele>1061.7</ele>
        <time>2022-05-17T11:11:29Z</time>
      </trkpt>
      <trkpt lat="45.4502" lon="4.00938">
        <ele>1056</ele>
        <time>2022-05-17T11:13:13Z</time>
      </trkpt>
      <trkpt lat="45.44885" lon="4.00903">
        <ele>1051.1</ele>
        <time>2022-05-17T11:15:17Z</time>
      </trkpt>
      <trkpt lat="45.44796" lon="4.00886">
        <ele>1042</ele>
        <time>2022-05-17T11:16:13Z</time>
      </trkpt>
      <trkpt lat="45.4462" lon="4.00877">
        <ele>1024.8</ele>
        <time>2022-05-17T11:18:39Z</time>
      </trkpt>
      <trkpt lat="45.44603" lon="4.00866">
        <ele>1022.4</ele>
      </trkpt>
      <trkpt lat="45.44576" lon="4.00825">
        <ele>1024</ele>
        <time>2022-05-17T11:19:24Z</time>
      </trkpt>
      <trkpt lat="45.44531" lon="4.00728">
        <ele>1015</ele>
        <time>2022-05-17T11:20:29Z</time>
      </trkpt>
      <trkpt lat="45.44483" lon="4.00669">
        <ele>1005.4</ele>
        <time>2022-05-17T11:21:24Z</time>
      </trkpt>
      <trkpt lat="45.44469" lon="4.00767">
        <ele>999</ele>
        <time>2022-05-17T11:22:32Z</time>
      </trkpt>
      <trkpt lat="45.44469" lon="4.00785">
        <ele>998.3</ele>
      </trkpt>
      <trkpt lat="45.44462" lon="4.00882">
        <ele>993</ele>
        <time>2022-05-17T11:23:27Z</time>
      </trkpt>
      <trkpt lat="45.44461" lon="4.00934">
        <ele>990</ele>
        <time>2022-05-17T11:23:57Z</time>
      </trkpt>
      <trkpt lat="45.44466" lon="4.00962">
        <ele>988.1</ele>
      </trkpt>
      <trkpt lat="45.4447" lon="4.00981">
        <ele>987.5</ele>
        <time>2022-05-17T11:24:22Z</time>
      </trkpt>
      <trkpt lat="45.44478" lon="4.01151">
        <ele>992</ele>
        <time>2022-05-17T11:25:59Z</time>
      </trkpt>
      <trkpt lat="45.44438" lon="4.01107">
        <ele>990</ele>
        <time>2022-05-17T11:26:40Z</time>
      </trkpt>
      <trkpt lat="45.44419" lon="4.01101">
        <ele>987.9</ele>
      </trkpt>
      <trkpt lat="45.44396" lon="4.01112">
        <ele>985</ele>
        <time>2022-05-17T11:27:13Z</time>
      </trkpt>
      <trkpt lat="45.44376" lon="4.01151">
        <ele>981</ele>
        <time>2022-05-17T11:27:52Z</time>
      </trkpt>
      <trkpt lat="45.44355" lon="4.01153">
        <ele>977</ele>
      </trkpt>
      <trkpt lat="45.44335" lon="4.01161">
        <ele>974</ele>
      </trkpt>
      <trkpt lat="45.44328" lon="4.01172">
        <ele>972.8</ele>
        <time>2022-05-17T11:28:18Z</time>
      </trkpt>
      <trkpt lat="45.44325" lon="4.01216">
        <ele>968</ele>
        <time>2022-05-17T11:28:45Z</time>
      </trkpt>
      <trkpt lat="45.44262" lon="4.0126">
        <ele>962.5</ele>
        <time>2022-05-17T11:29:40Z</time>
      </trkpt>
      <trkpt lat="45.44164" lon="4.01246">
        <ele>952</ele>
        <time>2022-05-17T11:31:01Z</time>
      </trkpt>
      <trkpt lat="45.44116" lon="4.01253">
        <ele>949</ele>
        <time>2022-05-17T11:31:40Z</time>
      </trkpt>
      <trkpt lat="45.44062" lon="4.01283">
        <ele>953</ele>
        <time>2022-05-17T11:32:26Z</time>
      </trkpt>
      <trkpt lat="45.43997" lon="4.0126">
        <ele>951</ele>
        <time>2022-05-17T11:33:20Z</time>
      </trkpt>
      <trkpt lat="45.43962" lon="4.01321">
        <ele>959</ele>
        <time>2022-05-17T11:34:04Z</time>
      </trkpt>
      <trkpt lat="45.43921" lon="4.01398">
        <ele>964</ele>
        <time>2022-05-17T11:34:58Z</time>
      </trkpt>
      <trkpt lat="45.4389" lon="4.01457">
        <ele>968</ele>
        <time>2022-05-17T11:35:40Z</time>
      </trkpt>
      <trkpt lat="45.43873" lon="4.01536">
        <ele>974</ele>
        <time>2022-05-17T11:36:26Z</time>
      </trkpt>
      <trkpt lat="45.43848" lon="4.01587">
        <ele>977</ele>
        <time>2022-05-17T11:37:01Z</time>
      </trkpt>
      <trkpt lat="45.43832" lon="4.01608">
        <ele>977</ele>
        <time>2022-05-17T11:37:19Z</time>
      </trkpt>
      <trkpt lat="45.4382" lon="4.01697">
        <ele>981</ele>
        <time>2022-05-17T11:38:10Z</time>
      </trkpt>
      <trkpt lat="45.43808" lon="4.01762">
        <ele>983</ele>
        <time>2022-05-17T11:38:47Z</time>
      </trkpt>
      <trkpt lat="45.4378" lon="4.01839">
        <ele>987</ele>
        <time>2022-05-17T11:39:36Z</time>
      </trkpt>
      <trkpt lat="45.43756" lon="4.01911">
        <ele>991</ele>
        <time>2022-05-17T11:40:21Z</time>
      </trkpt>
      <trkpt lat="45.43756" lon="4.01938">
        <ele>992.6</ele>
      </trkpt>
      <trkpt lat="45.43753" lon="4.01944">
        <ele>993</ele>
      </trkpt>
      <trkpt lat="45.43742" lon="4.01952">
        <ele>992</ele>
        <time>2022-05-17T11:40:52Z</time>
      </trkpt>
      <trkpt lat="45.43702" lon="4.01927">
        <ele>992.1</ele>
        <time>2022-05-17T11:41:26Z</time>
      </trkpt>
      <trkpt lat="45.43632" lon="4.01912">
        <ele>992</ele>
        <time>2022-05-17T11:42:23Z</time>
      </trkpt>
      <trkpt lat="45.43549" lon="4.01845">
        <ele>986</ele>
        <time>2022-05-17T11:43:40Z</time>
      </trkpt>
      <trkpt lat="45.43469" lon="4.0178">
        <ele>976</ele>
        <time>2022-05-17T11:44:53Z</time>
      </trkpt>
      <trkpt lat="45.43389" lon="4.01719">
        <ele>967.6</ele>
        <time>2022-05-17T11:46:10Z</time>
      </trkpt>
      <trkpt lat="45.43315" lon="4.01639">
        <ele>964</ele>
        <time>2022-05-17T11:47:22Z</time>
      </trkpt>
      <trkpt lat="45.43265" lon="4.01615">
        <ele>964.1</ele>
      </trkpt>
      <trkpt lat="45.4322" lon="4.01604">
        <ele>963</ele>
        <time>2022-05-17T11:48:41Z</time>
      </trkpt>
      <trkpt lat="45.43199" lon="4.01577">
        <ele>955.7</ele>
      </trkpt>
      <trkpt lat="45.43174" lon="4.01582">
        <ele>954.2</ele>
        <time>2022-05-17T11:49:24Z</time>
      </trkpt>
      <trkpt lat="45.43167" lon="4.015">
        <ele>953</ele>
      </trkpt>
      <trkpt lat="45.43177" lon="4.01416">
        <ele>949</ele>
        <time>2022-05-17T11:51:00Z</time>
      </trkpt>
      <trkpt lat="45.43167" lon="4.01411">
        <ele>949.8</ele>
      </trkpt>
      <trkpt lat="45.43159" lon="4.01315">
        <ele>941.5</ele>
        <time>2022-05-17T11:52:05Z</time>
      </trkpt>
      <trkpt lat="45.43112" lon="4.01242">
        <ele>932.8</ele>
      </trkpt>
      <trkpt lat="45.43039" lon="4.01161">
        <ele>938</ele>
        <time>2022-05-17T11:54:10Z</time>
      </trkpt>
      <trkpt lat="45.42927" lon="4.01024">
        <ele>950</ele>
        <time>2022-05-17T11:56:08Z</time>
      </trkpt>
      <trkpt lat="45.42915" lon="4.01087">
        <ele>951.1</ele>
      </trkpt>
      <trkpt lat="45.42872" lon="4.01172">
        <ele>952.2</ele>
      </trkpt>
      <trkpt lat="45.42825" lon="4.01228">
        <ele>949.2</ele>
        <time>2022-05-17T11:58:31Z</time>
      </trkpt>
      <trkpt lat="45.42741" lon="4.01327">
        <ele>945</ele>
        <time>2022-05-17T11:59:55Z</time>
      </trkpt>
      <trkpt lat="45.42694" lon="4.01417">
        <ele>946</ele>
        <time>2022-05-17T12:00:58Z</time>
      </trkpt>
      <trkpt lat="45.42671" lon="4.01452">
        <ele>949</ele>
        <time>2022-05-17T12:01:26Z</time>
      </trkpt>
      <trkpt lat="45.42609" lon="4.01506">
        <ele>950</ele>
        <time>2022-05-17T12:02:25Z</time>
      </trkpt>
      <trkpt lat="45.42549" lon="4.01595">
        <ele>953</ele>
      </trkpt>
      <trkpt lat="45.42478" lon="4.01671">
        <ele>951</ele>
        <time>2022-05-17T12:04:47Z</time>
      </trkpt>
      <trkpt lat="45.42405" lon="4.01754">
        <ele>945</ele>
        <time>2022-05-17T12:06:01Z</time>
      </trkpt>
      <trkpt lat="45.42319" lon="4.01838">
        <ele>936</ele>
        <time>2022-05-17T12:07:25Z</time>
      </trkpt>
      <trkpt lat="45.42265" lon="4.01924">
        <ele>928</ele>
        <time>2022-05-17T12:08:30Z</time>
      </trkpt>
      <trkpt lat="45.42201" lon="4.02015">
        <ele>920</ele>
        <time>2022-05-17T12:09:42Z</time>
      </trkpt>
      <trkpt lat="45.42161" lon="4.02075">
        <ele>919.1</ele>
      </trkpt>
      <trkpt lat="45.42136" lon="4.02141">
        <ele>914</ele>
        <time>2022-05-17T12:11:10Z</time>
      </trkpt>
      <trkpt lat="45.42142" lon="4.02199">
        <ele>914</ele>
        <time>2022-05-17T12:11:43Z</time>
      </trkpt>
      <trkpt lat="45.4217" lon="4.02237">
        <ele>917</ele>
        <time>2022-05-17T12:12:14Z</time>
      </trkpt>
      <trkpt lat="45.42194" lon="4.02353">
        <ele>923</ele>
        <time>2022-05-17T12:13:22Z</time>
      </trkpt>
      <trkpt lat="45.42207" lon="4.02395">
        <ele>926.5</ele>
        <time>2022-05-17T12:13:49Z</time>
      </trkpt>
      <trkpt lat="45.42205" lon="4.02414">
        <ele>926.5</ele>
        <time>2022-05-17T12:14:04Z</time>
      </trkpt>
      <trkpt lat="45.42241" lon="4.02453">
        <ele>929.1</ele>
        <time>2022-05-17T12:14:34Z</time>
      </trkpt>
      <trkpt lat="45.42306" lon="4.02454">
        <ele>929</ele>
        <time>2022-05-17T12:15:26Z</time>
      </trkpt>
      <trkpt lat="45.42329" lon="4.02461">
        <ele>931.2</ele>
      </trkpt>
      <trkpt lat="45.42362" lon="4.02495">
        <ele>932</ele>
        <time>2022-05-17T12:16:16Z</time>
      </trkpt>
      <trkpt lat="45.42439" lon="4.0255">
        <ele>937</ele>
        <time>2022-05-17T12:17:25Z</time>
      </trkpt>
      <trkpt lat="45.42512" lon="4.02608">
        <ele>935.5</ele>
      </trkpt>
      <trkpt lat="45.42581" lon="4.0268">
        <ele>938</ele>
        <time>2022-05-17T12:19:42Z</time>
      </trkpt>
      <trkpt lat="45.42622" lon="4.02746">
        <ele>933.3</ele>
      </trkpt>
      <trkpt lat="45.42661" lon="4.02816">
        <ele>926.1</ele>
        <time>2022-05-17T12:21:20Z</time>
      </trkpt>
      <trkpt lat="45.42701" lon="4.02904">
        <ele>919.9</ele>
        <time>2022-05-17T12:22:25Z</time>
      </trkpt>
      <trkpt lat="45.427" lon="4.02927">
        <ele>918.8</ele>
        <time>2022-05-17T12:22:39Z</time>
      </trkpt>
      <trkpt lat="45.42732" lon="4.02961">
        <ele>919</ele>
        <time>2022-05-17T12:23:07Z</time>
      </trkpt>
      <trkpt lat="45.42765" lon="4.02975">
        <ele>919.3</ele>
      </trkpt>
      <trkpt lat="45.42798" lon="4.02978">
        <ele>919.6</ele>
      </trkpt>
      <trkpt lat="45.42827" lon="4.02995">
        <ele>929</ele>
        <time>2022-05-17T12:24:24Z</time>
      </trkpt>
      <trkpt lat="45.4285" lon="4.03007">
        <ele>921</ele>
      </trkpt>
      <trkpt lat="45.42942" lon="4.03099">
        <ele>930</ele>
        <time>2022-05-17T12:26:13Z</time>
      </trkpt>
      <trkpt lat="45.43054" lon="4.03195">
        <ele>925.2</ele>
        <time>2022-05-17T12:27:59Z</time>
      </trkpt>
      <trkpt lat="45.4309" lon="4.03237">
        <ele>926</ele>
        <time>2022-05-17T12:28:44Z</time>
      </trkpt>
      <trkpt lat="45.43155" lon="4.03288">
        <ele>932.5</ele>
        <time>2022-05-17T12:29:35Z</time>
      </trkpt>
      <trkpt lat="45.4318" lon="4.0331">
        <ele>936.7</ele>
      </trkpt>
      <trkpt lat="45.43205" lon="4.0334">
        <ele>941</ele>
      </trkpt>
      <trkpt lat="45.432" lon="4.03338">
        <ele>936</ele>
        <time>2022-05-17T12:30:21Z</time>
      </trkpt>
      <trkpt lat="45.4323" lon="4.03411">
        <ele>945.4</ele>
      </trkpt>
      <trkpt lat="45.43248" lon="4.03481">
        <ele>946</ele>
        <time>2022-05-17T12:31:50Z</time>
      </trkpt>
      <trkpt lat="45.43266" lon="4.03505">
        <ele>951.4</ele>
      </trkpt>
      <trkpt lat="45.43305" lon="4.0355">
        <ele>952</ele>
        <time>2022-05-17T12:32:50Z</time>
      </trkpt>
      <trkpt lat="45.43349" lon="4.03598">
        <ele>958.3</ele>
      </trkpt>
      <trkpt lat="45.43359" lon="4.03603">
        <ele>958.6</ele>
        <time>2022-05-17T12:33:39Z</time>
      </trkpt>
      <trkpt lat="45.434" lon="4.03602">
        <ele>954</ele>
        <time>2022-05-17T12:34:19Z</time>
      </trkpt>
      <trkpt lat="45.43473" lon="4.03579">
        <ele>957</ele>
        <time>2022-05-17T12:35:18Z</time>
      </trkpt>
      <trkpt lat="45.43581" lon="4.03536">
        <ele>962</ele>
        <time>2022-05-17T12:36:48Z</time>
      </trkpt>
      <trkpt lat="45.43641" lon="4.03522">
        <ele>962</ele>
        <time>2022-05-17T12:37:37Z</time>
      </trkpt>
      <trkpt lat="45.43665" lon="4.03484">
        <ele>967.4</ele>
        <time>2022-05-17T12:38:09Z</time>
      </trkpt>
      <trkpt lat="45.43687" lon="4.03467">
        <ele>968.3</ele>
      </trkpt>
      <trkpt lat="45.43692" lon="4.03451">
        <ele>970</ele>
        <time>2022-05-17T12:38:35Z</time>
      </trkpt>
      <trkpt lat="45.43694" lon="4.03402">
        <ele>974.6</ele>
        <time>2022-05-17T12:39:03Z</time>
      </trkpt>
      <trkpt lat="45.43695" lon="4.03365">
        <ele>972</ele>
        <time>2022-05-17T12:39:24Z</time>
      </trkpt>
      <trkpt lat="45.43713" lon="4.03299">
        <ele>971</ele>
        <time>2022-05-17T12:40:04Z</time>
      </trkpt>
      <trkpt lat="45.43712" lon="4.03244">
        <ele>971</ele>
        <time>2022-05-17T12:40:35Z</time>
      </trkpt>
      <trkpt lat="45.43727" lon="4.03249">
        <ele>975.4</ele>
      </trkpt>
      <trkpt lat="45.43773" lon="4.03242">
        <ele>977.5</ele>
      </trkpt>
      <trkpt lat="45.43835" lon="4.03225">
        <ele>976.7</ele>
        <time>2022-05-17T12:42:15Z</time>
      </trkpt>
      <trkpt lat="45.43898" lon="4.03229">
        <ele>975</ele>
        <time>2022-05-17T12:43:04Z</time>
      </trkpt>
      <trkpt lat="45.43912" lon="4.03244">
        <ele>977</ele>
      </trkpt>
      <trkpt lat="45.43916" lon="4.03256">
        <ele>975</ele>
        <time>2022-05-17T12:43:25Z</time>
      </trkpt>
      <trkpt lat="45.43958" lon="4.03288">
        <ele>981.5</ele>
        <time>2022-05-17T12:44:05Z</time>
      </trkpt>
      <trkpt lat="45.43975" lon="4.03316">
        <ele>982.4</ele>
      </trkpt>
      <trkpt lat="45.4399" lon="4.03343">
        <ele>982.3</ele>
        <time>2022-05-17T12:44:43Z</time>
      </trkpt>
      <trkpt lat="45.44011" lon="4.03412">
        <ele>984.3</ele>
        <time>2022-05-17T12:45:26Z</time>
      </trkpt>
      <trkpt lat="45.44008" lon="4.03509">
        <ele>981</ele>
        <time>2022-05-17T12:46:23Z</time>
      </trkpt>
      <trkpt lat="45.44015" lon="4.03529">
        <ele>979.4</ele>
      </trkpt>
      <trkpt lat="45.44058" lon="4.03588">
        <ele>979.4</ele>
        <time>2022-05-17T12:47:22Z</time>
      </trkpt>
      <trkpt lat="45.44084" lon="4.03643">
        <ele>983.9</ele>
      </trkpt>
      <trkpt lat="45.441" lon="4.03703">
        <ele>984</ele>
        <time>2022-05-17T12:48:37Z</time>
      </trkpt>
      <trkpt lat="45.44163" lon="4.03836">
        <ele>990.6</ele>
        <time>2022-05-17T12:50:12Z</time>
      </trkpt>
      <trkpt lat="45.44232" lon="4.03907">
        <ele>991.3</ele>
        <time>2022-05-17T12:51:25Z</time>
      </trkpt>
      <trkpt lat="45.44255" lon="4.03942">
        <ele>987.2</ele>
      </trkpt>
      <trkpt lat="45.44293" lon="4.03951">
        <ele>993.5</ele>
      </trkpt>
      <trkpt lat="45.4431" lon="4.03976">
        <ele>994</ele>
        <time>2022-05-17T12:52:29Z</time>
      </trkpt>
      <trkpt lat="45.44337" lon="4.04012">
        <ele>996.1</ele>
      </trkpt>
      <trkpt lat="45.44373" lon="4.04021">
        <ele>995.9</ele>
        <time>2022-05-17T12:53:26Z</time>
      </trkpt>
      <trkpt lat="45.44481" lon="4.04005">
        <ele>982.9</ele>
        <time>2022-05-17T12:54:55Z</time>
      </trkpt>
      <trkpt lat="45.44533" lon="4.04">
        <ele>976.8</ele>
      </trkpt>
      <trkpt lat="45.44587" lon="4.04017">
        <ele>973.7</ele>
        <time>2022-05-17T12:56:21Z</time>
      </trkpt>
      <trkpt lat="45.44683" lon="4.03984">
        <ele>979.1</ele>
      </trkpt>
      <trkpt lat="45.44703" lon="4.03982">
        <ele>977.7</ele>
        <time>2022-05-17T12:57:55Z</time>
      </trkpt>
      <trkpt lat="45.44785" lon="4.0398">
        <ele>969</ele>
        <time>2022-05-17T12:59:07Z</time>
      </trkpt>
      <trkpt lat="45.44819" lon="4.03992">
        <ele>968.2</ele>
      </trkpt>
      <trkpt lat="45.44883" lon="4.03997">
        <ele>972</ele>
        <time>2022-05-17T13:00:19Z</time>
      </trkpt>
      <trkpt lat="45.4489" lon="4.03994">
        <ele>973</ele>
      </trkpt>
      <trkpt lat="45.44902" lon="4.0397">
        <ele>977.2</ele>
      </trkpt>
      <trkpt lat="45.44905" lon="4.0396">
        <ele>978.7</ele>
        <time>2022-05-17T13:00:45Z</time>
      </trkpt>
      <trkpt lat="45.44913" lon="4.03937">
        <ele>979</ele>
        <time>2022-05-17T13:01:06Z</time>
      </trkpt>
      <trkpt lat="45.44987" lon="4.03909">
        <ele>986</ele>
        <time>2022-05-17T13:02:07Z</time>
      </trkpt>
      <trkpt lat="45.45037" lon="4.03944">
        <ele>983.4</ele>
      </trkpt>
      <trkpt lat="45.45049" lon="4.03951">
        <ele>983.1</ele>
        <time>2022-05-17T13:03:00Z</time>
      </trkpt>
      <trkpt lat="45.45081" lon="4.03957">
        <ele>983</ele>
      </trkpt>
      <trkpt lat="45.45096" lon="4.03969">
        <ele>982.7</ele>
      </trkpt>
      <trkpt lat="45.45103" lon="4.03987">
        <ele>985</ele>
        <time>2022-05-17T13:03:50Z</time>
      </trkpt>
      <trkpt lat="45.45094" lon="4.04047">
        <ele>983</ele>
        <time>2022-05-17T13:04:25Z</time>
      </trkpt>
      <trkpt lat="45.45102" lon="4.04139">
        <ele>988.3</ele>
      </trkpt>
      <trkpt lat="45.45098" lon="4.04143">
        <ele>983</ele>
        <time>2022-05-17T13:05:19Z</time>
      </trkpt>
      <trkpt lat="45.45149" lon="4.04128">
        <ele>990.2</ele>
      </trkpt>
      <trkpt lat="45.45207" lon="4.04123">
        <ele>994</ele>
        <time>2022-05-17T13:06:47Z</time>
      </trkpt>
      <trkpt lat="45.45267" lon="4.04127">
        <ele>1000.8</ele>
      </trkpt>
      <trkpt lat="45.45298" lon="4.04108">
        <ele>1005.9</ele>
        <time>2022-05-17T13:08:06Z</time>
      </trkpt>
      <trkpt lat="45.45306" lon="4.04108">
        <ele>1007</ele>
      </trkpt>
      <trkpt lat="45.45329" lon="4.04071">
        <ele>1010</ele>
        <time>2022-05-17T13:08:43Z</time>
      </trkpt>
      <trkpt lat="45.45407" lon="4.03994">
        <ele>1014</ele>
        <time>2022-05-17T13:09:59Z</time>
      </trkpt>
      <trkpt lat="45.45472" lon="4.03972">
        <ele>1020</ele>
      </trkpt>
      <trkpt lat="45.45536" lon="4.03936">
        <ele>1025</ele>
        <time>2022-05-17T13:11:48Z</time>
      </trkpt>
      <trkpt lat="45.45647" lon="4.0391">
        <ele>1034</ele>
        <time>2022-05-17T13:13:18Z</time>
      </trkpt>
      <trkpt lat="45.4568" lon="4.0389">
        <ele>1038.4</ele>
      </trkpt>
      <trkpt lat="45.45753" lon="4.03879">
        <ele>1041.9</ele>
        <time>2022-05-17T13:14:48Z</time>
      </trkpt>
      <trkpt lat="45.45783" lon="4.03792">
        <ele>1048</ele>
        <time>2022-05-17T13:15:41Z</time>
      </trkpt>
      <trkpt lat="45.45794" lon="4.03725">
        <ele>1054.5</ele>
      </trkpt>
      <trkpt lat="45.45798" lon="4.03656">
        <ele>1061.4</ele>
        <time>2022-05-17T13:16:58Z</time>
      </trkpt>
      <trkpt lat="45.45799" lon="4.03593">
        <ele>1066.5</ele>
      </trkpt>
      <trkpt lat="45.45786" lon="4.03535">
        <ele>1070.8</ele>
        <time>2022-05-17T13:18:10Z</time>
      </trkpt>
      <trkpt lat="45.45803" lon="4.03394">
        <ele>1078.7</ele>
        <time>2022-05-17T13:19:30Z</time>
      </trkpt>
      <trkpt lat="45.45852" lon="4.03264">
        <ele>1086</ele>
        <time>2022-05-17T13:20:52Z</time>
      </trkpt>
      <trkpt lat="45.45877" lon="4.03137">
        <ele>1089</ele>
        <time>2022-05-17T13:22:30Z</time>
      </trkpt>
      <trkpt lat="45.45876" lon="4.03096">
        <ele>1090.5</ele>
      </trkpt>
      <trkpt lat="45.45896" lon="4.02935">
        <ele>1092</ele>
        <time>2022-05-17T13:24:00Z</time>
      </trkpt>
      <trkpt lat="45.45879" lon="4.02852">
        <ele>1092.5</ele>
      </trkpt>
      <trkpt lat="45.4584" lon="4.02715">
        <ele>1094</ele>
        <time>2022-05-17T13:26:12Z</time>
      </trkpt>
      <trkpt lat="45.45772" lon="4.0269">
        <ele>1094.4</ele>
      </trkpt>
      <trkpt lat="45.45727" lon="4.02686">
        <ele>1098</ele>
        <time>2022-05-17T13:27:44Z</time>
      </trkpt>
      <trkpt lat="45.45567" lon="4.02654">
        <ele>1098</ele>
        <time>2022-05-17T13:29:53Z</time>
      </trkpt>
      <trkpt lat="45.45471" lon="4.02647">
        <ele>1092</ele>
        <time>2022-05-17T13:31:10Z</time>
      </trkpt>
      <trkpt lat="45.45443" lon="4.02652">
        <ele>1091.3</ele>
      </trkpt>
      <trkpt lat="45.45388" lon="4.02675">
        <ele>1088.2</ele>
      </trkpt>
      <trkpt lat="45.45335" lon="4.02698">
        <ele>1085.3</ele>
      </trkpt>
      <trkpt lat="45.45309" lon="4.02729">
        <ele>1083.4</ele>
      </trkpt>
      <trkpt lat="45.45295" lon="4.02732">
        <ele>1080</ele>
        <time>2022-05-17T13:33:39Z</time>
      </trkpt>
      <trkpt lat="45.45203" lon="4.02664">
        <ele>1069</ele>
        <time>2022-05-17T13:35:02Z</time>
      </trkpt>
      <trkpt lat="45.4513" lon="4.02609">
        <ele>1064</ele>
        <time>2022-05-17T13:36:10Z</time>
      </trkpt>
      <trkpt lat="45.4512" lon="4.02593">
        <ele>1062.8</ele>
      </trkpt>
      <trkpt lat="45.45076" lon="4.02595">
        <ele>1057.8</ele>
      </trkpt>
      <trkpt lat="45.45058" lon="4.02623">
        <ele>1056.4</ele>
      </trkpt>
      <trkpt lat="45.45018" lon="4.0265">
        <ele>1050</ele>
        <time>2022-05-17T13:37:45Z</time>
      </trkpt>
      <trkpt lat="45.44992" lon="4.02633">
        <ele>1051.7</ele>
      </trkpt>
      <trkpt lat="45.44963" lon="4.02631">
        <ele>1048.7</ele>
      </trkpt>
      <trkpt lat="45.44947" lon="4.02589">
        <ele>1044.3</ele>
        <time>2022-05-17T13:38:51Z</time>
      </trkpt>
      <trkpt lat="45.44943" lon="4.02569">
        <ele>1043.3</ele>
      </trkpt>
      <trkpt lat="45.44918" lon="4.0251">
        <ele>1042</ele>
        <time>2022-05-17T13:39:51Z</time>
      </trkpt>
      <trkpt lat="45.4492" lon="4.02475">
        <ele>1038.6</ele>
      </trkpt>
      <trkpt lat="45.44967" lon="4.02409">
        <ele>1032</ele>
        <time>2022-05-17T13:40:51Z</time>
      </trkpt>
      <trkpt lat="45.45023" lon="4.02404">
        <ele>1033.5</ele>
      </trkpt>
      <trkpt lat="45.45107" lon="4.02344">
        <ele>1039.5</ele>
      </trkpt>
      <trkpt lat="45.45163" lon="4.02308">
        <ele>1044.9</ele>
      </trkpt>
      <trkpt lat="45.45191" lon="4.02269">
        <ele>1046</ele>
        <time>2022-05-17T13:44:07Z</time>
      </trkpt>
      <trkpt lat="45.45199" lon="4.02228">
        <ele>1042.9</ele>
      </trkpt>
      <trkpt lat="45.45203" lon="4.0216">
        <ele>1044.3</ele>
      </trkpt>
      <trkpt lat="45.45194" lon="4.02143">
        <ele>1046</ele>
        <time>2022-05-17T13:45:18Z</time>
      </trkpt>
      <trkpt lat="45.4516" lon="4.02124">
        <ele>1041.5</ele>
      </trkpt>
      <trkpt lat="45.45133" lon="4.02028">
        <ele>1046.4</ele>
        <time>2022-05-17T13:46:12Z</time>
      </trkpt>
      <trkpt lat="45.45137" lon="4.02013">
        <ele>1047.4</ele>
      </trkpt>
      <trkpt lat="45.45178" lon="4.01995">
        <ele>1051</ele>
        <time>2022-05-17T13:47:11Z</time>
      </trkpt>
      <trkpt lat="45.45188" lon="4.01986">
        <ele>1053.8</ele>
      </trkpt>
      <trkpt lat="45.45209" lon="4.01966">
        <ele>1056.5</ele>
      </trkpt>
      <trkpt lat="45.45223" lon="4.01975">
        <ele>1059.2</ele>
      </trkpt>
      <trkpt lat="45.45241" lon="4.02005">
        <ele>1062.8</ele>
        <time>2022-05-17T13:48:06Z</time>
      </trkpt>
      <trkpt lat="45.4525" lon="4.02012">
        <ele>1064.4</ele>
      </trkpt>
      <trkpt lat="45.45325" lon="4.02035">
        <ele>1070.3</ele>
      </trkpt>
      <trkpt lat="45.45382" lon="4.02115">
        <ele>1080.6</ele>
        <time>2022-05-17T13:50:17Z</time>
      </trkpt>
      <trkpt lat="45.4539" lon="4.02158">
        <ele>1081.1</ele>
      </trkpt>
      <trkpt lat="45.45437" lon="4.02227">
        <ele>1083.8</ele>
      </trkpt>
      <trkpt lat="45.45483" lon="4.0228">
        <ele>1088.8</ele>
        <time>2022-05-17T13:52:22Z</time>
      </trkpt>
      <trkpt lat="45.45497" lon="4.02293">
        <ele>1090.9</ele>
      </trkpt>
      <trkpt lat="45.45551" lon="4.02309">
        <ele>1095.2</ele>
      </trkpt>
      <trkpt lat="45.45576" lon="4.02323">
        <ele>1096.2</ele>
      </trkpt>
      <trkpt lat="45.4564" lon="4.02407">
        <ele>1099.8</ele>
        <time>2022-05-17T13:55:03Z</time>
      </trkpt>
      <trkpt lat="45.45714" lon="4.02459">
        <ele>1101.7</ele>
      </trkpt>
      <trkpt lat="45.45744" lon="4.02482">
        <ele>1101.9</ele>
      </trkpt>
      <trkpt lat="45.45785" lon="4.02558">
        <ele>1100.3</ele>
        <time>2022-05-17T13:56:59Z</time>
      </trkpt>
      <trkpt lat="45.45816" lon="4.02415">
        <ele>1111.1</ele>
      </trkpt>
      <trkpt lat="45.45838" lon="4.02273">
        <ele>1119</ele>
        <time>2022-05-17T13:59:38Z</time>
      </trkpt>
      <trkpt lat="45.45856" lon="4.0219">
        <ele>1121.2</ele>
      </trkpt>
      <trkpt lat="45.45883" lon="4.02086">
        <ele>1124.9</ele>
        <time>2022-05-17T14:01:29Z</time>
      </trkpt>
      <trkpt lat="45.45949" lon="4.01912">
        <ele>1131</ele>
        <time>2022-05-17T14:03:21Z</time>
      </trkpt>
      <trkpt lat="45.46026" lon="4.01758">
        <ele>1130</ele>
        <time>2022-05-17T14:05:07Z</time>
      </trkpt>
      <trkpt lat="45.46058" lon="4.01689">
        <ele>1127.9</ele>
      </trkpt>
      <trkpt lat="45.4608" lon="4.01615">
        <ele>1125.4</ele>
        <time>2022-05-17T14:06:31Z</time>
      </trkpt>
      <trkpt lat="45.46107" lon="4.01603">
        <ele>1126</ele>
        <time>2022-05-17T14:07:00Z</time>
      </trkpt>
      <trkpt lat="45.46159" lon="4.01602">
        <ele>1121.5</ele>
        <time>2022-05-17T14:08:00Z</time>
      </trkpt>
      <trkpt lat="45.46251" lon="4.0153">
        <ele>1119.8</ele>
      </trkpt>
      <trkpt lat="45.46293" lon="4.01507">
        <ele>1130</ele>
        <time>2022-05-17T14:09:43Z</time>
      </trkpt>
      <trkpt lat="45.46415" lon="4.01441">
        <ele>1132</ele>
        <time>2022-05-17T14:11:27Z</time>
      </trkpt>
      <trkpt lat="45.46457" lon="4.01408">
        <ele>1125.5</ele>
      </trkpt>
      <trkpt lat="45.46468" lon="4.01392">
        <ele>1129</ele>
        <time>2022-05-17T14:12:18Z</time>
      </trkpt>
      <trkpt lat="45.46447" lon="4.01359">
        <ele>1126.9</ele>
      </trkpt>
      <trkpt lat="45.46399" lon="4.01226">
        <ele>1128.4</ele>
        <time>2022-05-17T14:14:10Z</time>
      </trkpt>
      <trkpt lat="45.46331" lon="4.00998">
        <ele>1125.1</ele>
        <time>2022-05-17T14:16:27Z</time>
      </trkpt>
      <trkpt lat="45.46313" lon="4.00922">
        <ele>1119.7</ele>
      </trkpt>
      <trkpt lat="45.46309" lon="4.0087">
        <ele>1115.7</ele>
      </trkpt>
      <trkpt lat="45.4631" lon="4.0082">
        <ele>1114.5</ele>
        <time>2022-05-17T14:18:00Z</time>
      </trkpt>
      <trkpt lat="45.46352" lon="4.00778">
        <ele>1119</ele>
      </trkpt>
      <trkpt lat="45.46353" lon="4.00748">
        <ele>1122</ele>
        <time>2022-05-17T14:19:01Z</time>
      </trkpt>
      <trkpt lat="45.46364" lon="4.0058">
        <ele>1116.5</ele>
        <time>2022-05-17T14:20:37Z</time>
      </trkpt>
      <trkpt lat="45.46386" lon="4.00593">
        <ele>1120.5</ele>
      </trkpt>
      <trkpt lat="45.46427" lon="4.00602">
        <ele>1125.6</ele>
      </trkpt>
      <trkpt lat="45.46465" lon="4.00646">
        <ele>1128.2</ele>
      </trkpt>
      <trkpt lat="45.46489" lon="4.0066">
        <ele>1131</ele>
        <time>2022-05-17T14:22:25Z</time>
      </trkpt>
      <trkpt lat="45.46522" lon="4.00636">
        <ele>1132.7</ele>
      </trkpt>
      <trkpt lat="45.46539" lon="4.00628">
        <ele>1133.8</ele>
      </trkpt>
      <trkpt lat="45.46599" lon="4.00628">
        <ele>1137.1</ele>
      </trkpt>
      <trkpt lat="45.46659" lon="4.00635">
        <ele>1145</ele>
        <time>2022-05-17T14:24:42Z</time>
      </trkpt>
      <trkpt lat="45.46716" lon="4.0063">
        <ele>1146.9</ele>
      </trkpt>
      <trkpt lat="45.46746" lon="4.00616">
        <ele>1150.4</ele>
        <time>2022-05-17T14:25:58Z</time>
      </trkpt>
      <trkpt lat="45.46768" lon="4.00627">
        <ele>1152.7</ele>
      </trkpt>
      <trkpt lat="45.46798" lon="4.00627">
        <ele>1157.2</ele>
      </trkpt>
      <trkpt lat="45.46889" lon="4.00624">
        <ele>1165.5</ele>
      </trkpt>
      <trkpt lat="45.46948" lon="4.00614">
        <ele>1166.1</ele>
      </trkpt>
      <trkpt lat="45.46976" lon="4.00618">
        <ele>1167.1</ele>
        <time>2022-05-17T14:28:57Z</time>
      </trkpt>
      <trkpt lat="45.46984" lon="4.0063">
        <ele>1167.4</ele>
      </trkpt>
      <trkpt lat="45.46983" lon="4.00673">
        <ele>1166.2</ele>
      </trkpt>
      <trkpt lat="45.46981" lon="4.00751">
        <ele>1164</ele>
      </trkpt>
      <trkpt lat="45.47012" lon="4.00797">
        <ele>1161</ele>
        <time>2022-05-17T14:30:23Z</time>
      </trkpt>
      <trkpt lat="45.47032" lon="4.00781">
        <ele>1161.6</ele>
        <time>2022-05-17T14:30:53Z</time>
      </trkpt>
      <trkpt lat="45.47066" lon="4.00711">
        <ele>1168</ele>
        <time>2022-05-17T14:31:23Z</time>
      </trkpt>
      <trkpt lat="45.47092" lon="4.00659">
        <ele>1168.5</ele>
      </trkpt>
      <trkpt lat="45.47168" lon="4.00586">
        <ele>1169.7</ele>
      </trkpt>
      <trkpt lat="45.4718" lon="4.00578">
        <ele>1169.1</ele>
        <time>2022-05-17T14:33:16Z</time>
      </trkpt>
      <trkpt lat="45.47249" lon="4.00518">
        <ele>1169</ele>
        <time>2022-05-17T14:34:30Z</time>
      </trkpt>
      <trkpt lat="45.47267" lon="4.00493">
        <ele>1168.7</ele>
      </trkpt>
      <trkpt lat="45.47312" lon="4.00448">
        <ele>1167.2</ele>
        <time>2022-05-17T14:35:59Z</time>
      </trkpt>
      <trkpt lat="45.47334" lon="4.00424">
        <ele>1166.3</ele>
      </trkpt>
      <trkpt lat="45.47393" lon="4.00392">
        <ele>1167</ele>
        <time>2022-05-17T14:36:41Z</time>
      </trkpt>
      <trkpt lat="45.47437" lon="4.00334">
        <ele>1167</ele>
        <time>2022-05-17T14:37:29Z</time>
      </trkpt>
      <trkpt lat="45.47457" lon="4.00292">
        <ele>1161.2</ele>
      </trkpt>
      <trkpt lat="45.47498" lon="4.00252">
        <ele>1161.9</ele>
        <time>2022-05-17T14:39:01Z</time>
      </trkpt>
      <trkpt lat="45.47553" lon="4.00183">
        <ele>1161.9</ele>
      </trkpt>
      <trkpt lat="45.47621" lon="4.00138">
        <ele>1160.7</ele>
      </trkpt>
      <trkpt lat="45.47663" lon="4.00085">
        <ele>1157.9</ele>
      </trkpt>
      <trkpt lat="45.47724" lon="4.00034">
        <ele>1157.6</ele>
        <time>2022-05-17T14:42:34Z</time>
      </trkpt>
      <trkpt lat="45.47786" lon="3.99941">
        <ele>1157</ele>
        <time>2022-05-17T14:43:27Z</time>
      </trkpt>
      <trkpt lat="45.47816" lon="3.99831">
        <ele>1150.6</ele>
      </trkpt>
      <trkpt lat="45.47891" lon="3.99713">
        <ele>1151</ele>
        <time>2022-05-17T14:46:00Z</time>
      </trkpt>
      <trkpt lat="45.47932" lon="3.99628">
        <ele>1147.5</ele>
      </trkpt>
      <trkpt lat="45.47928" lon="3.99561">
        <ele>1145.1</ele>
      </trkpt>
      <trkpt lat="45.47865" lon="3.99498">
        <ele>1143.3</ele>
      </trkpt>
      <trkpt lat="45.47841" lon="3.99446">
        <ele>1142.8</ele>
      </trkpt>
      <trkpt lat="45.47815" lon="3.99361">
        <ele>1141</ele>
      </trkpt>
      <trkpt lat="45.4774" lon="3.99304">
        <ele>1136.7</ele>
        <time>2022-05-17T14:50:50Z</time>
      </trkpt>
      <trkpt lat="45.47697" lon="3.99299">
        <ele>1134.9</ele>
      </trkpt>
      <trkpt lat="45.47641" lon="3.99328">
        <ele>1133.7</ele>
        <time>2022-05-17T14:52:25Z</time>
      </trkpt>
      <trkpt lat="45.47582" lon="3.99393">
        <ele>1129.8</ele>
      </trkpt>
      <trkpt lat="45.47528" lon="3.99436">
        <ele>1126.1</ele>
        <time>2022-05-17T14:54:09Z</time>
      </trkpt>
      <trkpt lat="45.47468" lon="3.99431">
        <ele>1121.9</ele>
      </trkpt>
      <trkpt lat="45.47448" lon="3.99509">
        <ele>1123.4</ele>
      </trkpt>
      <trkpt lat="45.47428" lon="3.99547">
        <ele>1124</ele>
        <time>2022-05-17T14:56:22Z</time>
      </trkpt>
      <trkpt lat="45.47359" lon="3.99549">
        <ele>1126</ele>
        <time>2022-05-17T14:57:13Z</time>
      </trkpt>
      <trkpt lat="45.473" lon="3.99651">
        <ele>1124.6</ele>
      </trkpt>
      <trkpt lat="45.47251" lon="3.99696">
        <ele>1123</ele>
        <time>2022-05-17T14:59:02Z</time>
      </trkpt>
      <trkpt lat="45.47166" lon="3.99703">
        <ele>1127</ele>
        <time>2022-05-17T15:00:19Z</time>
      </trkpt>
      <trkpt lat="45.4704" lon="3.99725">
        <ele>1120</ele>
        <time>2022-05-17T15:02:00Z</time>
      </trkpt>
      <trkpt lat="45.46988" lon="3.99772">
        <ele>1112.1</ele>
      </trkpt>
      <trkpt lat="45.46959" lon="3.99779">
        <ele>1118</ele>
        <time>2022-05-17T15:03:12Z</time>
      </trkpt>
      <trkpt lat="45.46892" lon="3.99773">
        <ele>1113.5</ele>
      </trkpt>
      <trkpt lat="45.46837" lon="3.99753">
        <ele>1116.8</ele>
        <time>2022-05-17T15:04:47Z</time>
      </trkpt>
      <trkpt lat="45.46781" lon="3.99737">
        <ele>1119.4</ele>
      </trkpt>
      <trkpt lat="45.46734" lon="3.99743">
        <ele>1125</ele>
        <time>2022-05-17T15:06:13Z</time>
      </trkpt>
      <trkpt lat="45.46656" lon="3.99772">
        <ele>1126.3</ele>
      </trkpt>
      <trkpt lat="45.46641" lon="3.99774">
        <ele>1126.5</ele>
        <time>2022-05-17T15:07:17Z</time>
      </trkpt>
      <trkpt lat="45.46388" lon="3.99719">
        <ele>1127</ele>
        <time>2022-05-17T15:10:58Z</time>
      </trkpt>
      <trkpt lat="45.46308" lon="3.99702">
        <ele>1124.2</ele>
      </trkpt>
      <trkpt lat="45.46221" lon="3.99708">
        <ele>1131</ele>
        <time>2022-05-17T15:13:12Z</time>
      </trkpt>
      <trkpt lat="45.46151" lon="3.99736">
        <ele>1131.9</ele>
      </trkpt>
      <trkpt lat="45.46099" lon="3.9977">
        <ele>1131</ele>
        <time>2022-05-17T15:14:56Z</time>
      </trkpt>
      <trkpt lat="45.46079" lon="3.99715">
        <ele>1134</ele>
      </trkpt>
      <trkpt lat="45.46011" lon="3.99661">
        <ele>1136.8</ele>
        <time>2022-05-17T15:16:02Z</time>
      </trkpt>
    </trkseg>
  </trk>
</gpx>